ギャラッド彗星

C/2008 Q3 ( Garradd )

English version
Home page
Total 6,336 html files since Dec. 4, 1995
Updated on October 21, 2008

---------------------------------------------------------------------

・ プロフィール

発見日 2008年8月27日
発見光度 19.2等
発見者 G. J. Garradd (Siding Spring Survey)

・ 軌道要素

Epoch 2009 June 18.0 TT = JDT 2455000.5
T 2009 June 23.14110 TT                                 MPC
q   1.7960220            (2000.0)            P               Q
z  +0.0005642      Peri.  340.92778     -0.56529943     -0.71875897
 +/-0.0001291      Node   219.72416     -0.65029718     +0.08644006
e   0.9989867      Incl.  140.70455     -0.50749397     +0.68986496

・ 星図

・ 光度変化

        m1 = 10.5 + 5 logΔ + 10.0 log r

---------------------------------------------------------------------

軌道要素はM.P.E.C. 2008-U19に掲載されたものです。
星図はステラナビゲータ Ver.8 (アストロアーツ) で作成したものです。
光度グラフはComet for Windowsで作成したものです。

---------------------------------------------------------------------

Copyright(C) 1995-2008 Seiichi Yoshida (comet@aerith.net). All rights reserved.